Weather in Forli

Italy     44°13′39″N   12°02′34″E
temp.,
°C
wind,
m/s
gust,
m/s
humid.,
%
clouds,
%
prec.,
mm/h
press.,
hPa
HPBL,
m
10 april, sat
sat1023:00+7ssw46525 0.0 1025102
02:00+6sw3555100 0.0 102469
05:00+6ssw3465100 0.0 102369
08:00+9ssw246640 0.0 1023135
11:00+11ssw2362100 0.0 1023351
14:00+15ssw135472 0.0 10221065
17:00+13e4663100 0.0 1021266
20:00+13ssw2265100 0.0 102028
11 april, sun
sun1123:00+12ssw2265100 0.0 102035
02:00+10se2292100 2.8 101955
05:00+10sse3490100 0.1 1018117
08:00+10sse2385100 0.2 101885
11:00+11se2379100 0.0 1018180
14:00+13sse1372100 0.0 1019395
17:00+12sse1177100 0.1 101827
20:00+11nw2285100 0.1 101929
12 april, mon
mon1223:00+11nnw008944 0.0 102014
02:00+10n0191100 0.0 101912
05:00+11sse2288100 0.1 101753
08:00+12sse2289100 0.5 101659
11:00+13ssw2581100 0.4 1016365
14:00+17s366263 0.6 10151209
17:00+17sse585988 0.1 10121052
20:00+13sse2374100 0.3 101379
13 april, tue
tue1323:00+10sw51178100 2.7 1014368
02:00+8w228317 2.7 101331
05:00+8sw2386100 0.3 101396
08:00+9nw368788 0.4 1013407
11:00+7nw6891100 0.6 1015719
14:00+6wnw81193100 1.6 1016667
17:00+6ne6992100 2.8 10181032
20:00+6nne4794100 8.7 1021952
14 april, wed
wed1423:00+6nne3789100 1.7 1022754
02:00+5wnw3393100 2.1 1023117
05:00+4wnw249470 0.1 1023177
08:00+6ssw2283100 0.1 1023194
11:00+9ene226199 0.2 10241193
14:00+11e344518 0.2 10221738
17:00+11e44415 0.0 10211510
20:00+7sse33545 0.0 102125